COSMOS 2251 DEB, 33828

Orbit data source: Space-Track

COSMOS 2251 DEB, 33828 is space debris in LEO originally from a launch on Wed, 16 Jun 1993 UTC launched from the Plesetsk Missile And Space Complex (PKMTR). The debris from Iridium 33, an American commercial communications satellite, has been tracked extensively since its accidental collision with the defunct Russian satellite Cosmos 2251 in 2009. This event, occurring at high speed in low Earth orbit (LEO), generated thousands of pieces of space debris, significantly increasing the risk of further collisions. The Iridium 33 debris cloud has impacted space traffic management and orbital debris mitigation strategies, making it a subject of ongoing study in space situational awareness.

Loading next visibility...
Identifier
33828, 1993-036BV
Orbit
LEO
Country
Flag of CISCIS
Related business
Manufacturer
Unknown
Mission
Spacecraft
Bus & Motor
Unknown
Mass
Unknown
Launch date (UTC)
1993-06-16 (33 years ago)
Launch vehicle
Unknown
Launch site
Plesetsk Missile And Space Complex (PKMTR)
Object type
Payload
Rocket body
Debris
Shape & HBR
Unknown shape, 0.2 m
Radar Cross Section
Small (<0.1 m²)

Expand to show TLE details & history
Last TLE update: 4 hours ago

TLE from 4 hours ago
0 COSMOS 2251 DEB
1 33828U 93036BV  26121.55426347  .00001172  00000-0  34324-3 0  9993
2 33828  74.0469 337.9940 0028091  18.5064   0.5324 14.44794205903326
Epoch: 2026-05-01T13:18Z
TLE epoch observation values (Epoch: 2026-05-01T13:18:08.363Z)
Latitude
18.28208°
Longitude
-75.63577°
Altitude
724.774 km
Speed
7.505 km/s
True Right ascension
22h 53m 32s
True Declination
18° 10' 46"
Sunlit
Object was in daylight at epoch
Visualization orbit readout
Latitude
Unknown
Longitude
Unknown
Altitude
Unknown
Speed
Unknown
Apparent Right ascension
Unknown
Apparent Declination
Unknown
Sunlit
N/A
Visualization observer readout
Local Sidereal Time
01:14:53
Azimuth
Unknown
Elevation
Unknown
Doppler factor
Unknown
Orbital elements
Apogee altitude
760.312 km
Perigee altitude
720.319 km
Semi-major axis
7,118.453 km
Eccentricity
0.00281
Inclination
74.0469°
RAAN
337.994°
Arg. of periapsis
18.5064°
True anomaly
0.5354°
Mean anomaly
0.5324°
Eccentric anomaly
0.5339°
Mean motion
3.61381 °/min
Orbital period
99.62 mins
BSTAR
0.00034324
Loading maneuver chart data...
Computing Atmospheric mass density...

Documentation

Showing up to 5 results
|